Weather History for Santa Maria, CA

Change the Weather History Date:

Friday, December 6, 2013

  Actual Average Record
Temperature  
Mean Temperature 41 °F 52 °F  
Max Temperature 56 °F 64 °F 89 °F (1925)
Min Temperature 25 °F 40 °F 25 °F (2013)
Degree Days  
Heating Degree Days 24 13  
Month to date heating degree days 86 77  
Since 1 July heating degree days 468 723  
Cooling Degree Days 0 0  
Month to date cooling degree days 0 0  
Year to date cooling degree days 211 104  
Moisture  
Dew Point 23 °F    
Average Humidity 44    
Maximum Humidity 70    
Minimum Humidity 18    
Precipitation  
Precipitation T in 0.06 in 0.87 in (1966)
Month to date precipitation T 0.32  
Year to date precipitation 2.81 12.15  
Since 1 July precipitation 0.32 2.44  
Sea Level Pressure  
Sea Level Pressure 30.18 in    
Wind  
Wind Speed 4 mph (SE)    
Max Wind Speed 14 mph    
Max Gust Speed 26 mph    
Visibility 10 miles    
Events      
T = Trace of Precipitation, MM = Missing Value Source: NWS Daily Summary

Daily Weather History Graph

Daily Weather History Graph

Search for Another Location

Airport:

Trip Planner

Search our weather history database for the weather conditions in past years. The results will help you decide how hot, cold, wet, or windy it might be!

Date:

Astronomy

Dec. 06, 2013 Rise Set
Actual Time 6:55 AM PST 4:50 PM PST
Civil Twilight 6:27 AM PST 5:18 PM PST
Nautical Twilight 5:56 AM PST 5:49 PM PST
Astronomical Twilight 5:25 AM PST 6:20 PM PST
Moon 10:10 AM PST (12/6) 9:21 PM PST (12/6)
Length of Visible Light 10h 50m
Length of Day
9h 54m
Waxing Crescent, 20% of the Moon is Illuminated
Dec 6
Waxing Crescent
Dec 9
First Quarter
Dec 17
Full
Dec 25
Last Quarter
Jan 1
New

Hourly Weather History & Observations

Time (PST) Temp. Windchill Dew Point Humidity Pressure Visibility Wind Dir Wind Speed Gust Speed Precip Events Conditions
12:51 AM 30.0 °F 26.5 °F 16.0 °F 56% 30.17 in 10.0 mi South 3.5 mph - N/A   Clear
1:51 AM 30.9 °F 27.5 °F 17.1 °F 57% 30.18 in 10.0 mi East 3.5 mph - N/A   Clear
2:51 AM 28.9 °F - 16.0 °F 58% 30.19 in 10.0 mi Calm Calm - N/A   Clear
3:51 AM 30.0 °F - 17.1 °F 59% 30.19 in 10.0 mi Calm Calm - N/A   Clear
4:51 AM 28.0 °F 24.2 °F 16.0 °F 61% 30.19 in 10.0 mi ESE 3.5 mph - N/A   Clear
5:51 AM - - - N/A% 30.17 in - North - - N/A   Unknown
5:53 AM - - - N/A% 30.18 in 10.0 mi Calm Calm - N/A   Clear
6:51 AM - - - N/A% 30.18 in 10.0 mi Calm Calm - N/A   Clear
7:51 AM - - - N/A% 30.20 in 10.0 mi Calm Calm - N/A   Clear
8:51 AM - - - N/A% 30.20 in 10.0 mi Calm Calm - N/A   Clear
9:13 AM 42.8 °F - 10.4 °F 27% 30.21 in 10.0 mi Calm Calm - N/A   Clear
9:51 AM 46.9 °F - 10.9 °F 23% 30.24 in 10.0 mi NE 3.5 mph - N/A   Clear
10:51 AM 50.0 °F - 8.1 °F 18% 30.23 in 10.0 mi Calm Calm - N/A   Clear
11:51 AM 54.0 °F - 16.0 °F 22% 30.20 in 10.0 mi North 5.8 mph - N/A   Clear
12:51 PM 55.9 °F - 21.0 °F 26% 30.18 in 10.0 mi North 5.8 mph - N/A   Clear
1:51 PM 55.0 °F - 28.0 °F 35% 30.17 in 10.0 mi WNW 13.8 mph 17.3 mph N/A   Clear
2:51 PM 54.0 °F - 28.9 °F 38% 30.15 in 10.0 mi WNW 10.4 mph 26.5 mph N/A   Scattered Clouds
3:51 PM 53.1 °F - 30.0 °F 41% 30.15 in 10.0 mi WNW 10.4 mph - N/A   Mostly Cloudy
4:51 PM 48.9 °F - 33.1 °F 54% 30.16 in 10.0 mi West 5.8 mph - N/A   Partly Cloudy
5:51 PM 46.0 °F - 32.0 °F 58% 30.15 in 10.0 mi Calm Calm - N/A   Clear
6:51 PM 42.1 °F 40.2 °F 30.9 °F 65% 30.16 in 10.0 mi South 3.5 mph - N/A   Clear
7:51 PM 39.9 °F 35.8 °F 30.0 °F 68% 30.16 in 9.0 mi SSE 5.8 mph - N/A   Clear
8:51 PM 37.0 °F 33.3 °F 28.9 °F 73% 30.15 in 8.0 mi SE 4.6 mph - N/A   Clear
9:51 PM 39.9 °F 36.7 °F 30.9 °F 70% 30.17 in 10.0 mi SE 4.6 mph - N/A   Mostly Cloudy
10:51 PM 44.1 °F 41.5 °F 33.1 °F 65% 30.16 in 10.0 mi SSE 4.6 mph - N/A   Overcast
11:51 PM 44.1 °F 42.5 °F 34.0 °F 68% 30.15 in 10.0 mi SSE 3.5 mph - 0.00 in   Overcast